TimeCDT,TemperatureF,Dew PointF,Humidity,Sea Level PressureIn,VisibilityMPH,Wind Direction,Wind SpeedMPH,Gust SpeedMPH,PrecipitationIn,Events,Conditions,WindDirDegrees,DateUTC
12:53 AM,72.0,59.0,64,29.94,10.0,South,15.0,23.0,N/A,,Clear,190,2013-05-27 05:53:00
1:53 AM,71.1,59.0,66,29.94,10.0,South,12.7,-,N/A,,Overcast,180,2013-05-27 06:53:00
2:53 AM,69.1,60.1,73,29.92,10.0,SSE,10.4,-,N/A,,Clear,160,2013-05-27 07:53:00
3:53 AM,69.1,62.1,78,29.92,10.0,SSE,11.5,-,N/A,,Clear,160,2013-05-27 08:53:00
4:53 AM,69.1,63.0,81,29.90,10.0,South,11.5,-,N/A,,Clear,170,2013-05-27 09:53:00
5:53 AM,68.0,64.0,87,29.90,10.0,SSE,12.7,19.6,N/A,,Clear,160,2013-05-27 10:53:00
6:53 AM,69.1,64.9,87,29.89,10.0,South,12.7,-,N/A,,Clear,180,2013-05-27 11:53:00
7:53 AM,72.0,66.0,81,29.88,10.0,South,15.0,25.3,N/A,,Clear,180,2013-05-27 12:53:00
9:53 AM,75.2,66.2,73,29.86,10.0,South,19.6,31.1,N/A,,Scattered Clouds,190,2013-05-27 14:53:00
10:53 AM,78.1,66.9,68,29.83,10.0,South,23.0,29.9,N/A,,Clear,190,2013-05-27 15:53:00
11:53 AM,81.0,66.9,62,29.83,10.0,South,27.6,35.7,N/A,,Clear,190,2013-05-27 16:53:00
12:53 PM,79.0,66.0,64,29.82,10.0,South,24.2,29.9,N/A,,Clear,190,2013-05-27 17:53:00
1:53 PM,82.0,66.0,58,29.81,10.0,South,19.6,31.1,N/A,,Clear,190,2013-05-27 18:53:00
2:53 PM,82.9,68.0,60,29.82,10.0,South,13.8,21.9,N/A,,Partly Cloudy,190,2013-05-27 19:53:00
3:53 PM,81.0,66.0,60,29.81,10.0,South,17.3,23.0,N/A,,Clear,170,2013-05-27 20:53:00
4:53 PM,82.0,64.9,56,29.78,10.0,South,20.7,29.9,N/A,,Clear,170,2013-05-27 21:53:00
5:53 PM,81.0,64.9,58,29.76,10.0,South,25.3,32.2,N/A,,Clear,170,2013-05-27 22:53:00
6:53 PM,80.1,64.9,60,29.75,10.0,South,17.3,28.8,N/A,,Clear,180,2013-05-27 23:53:00
7:53 PM,78.1,64.9,64,29.74,10.0,South,23.0,28.8,N/A,,Clear,180,2013-05-28 00:53:00
8:53 PM,75.9,64.0,67,29.72,10.0,South,21.9,27.6,N/A,,Clear,180,2013-05-28 01:53:00
9:53 PM,75.0,64.0,69,29.76,10.0,South,21.9,29.9,N/A,,Clear,180,2013-05-28 02:53:00
10:53 PM,75.0,64.0,69,29.77,10.0,South,17.3,25.3,N/A,,Clear,180,2013-05-28 03:53:00
11:53 PM,73.9,64.0,71,29.74,10.0,South,17.3,28.8,N/A,,Clear,180,2013-05-28 04:53:00